MIDAS 5 DEB, 19981

Orbit data source: Space-Track

MIDAS 5 DEB, 19981 is space debris in LEO originally from a launch on Fri, 26 Oct 1962 UTC launched from the Air Force Western Test Range (AFWTR). Debris objects in space refer to the collection of defunct objects orbiting the Earth. Examples of debris include non-operational satellites, rocket bodies, and fragments generated from explosions, collisions, or faulty payload assembly.

Loading next visibility...
MIDAS 5 DEB details
Identifier
19981, 1962-010H
Orbit
LEO
Last TLE update2 days ago
Origin
Flag of USUSAF SSD (US)
ManufacturerMIT-LL
MissionSpacecraft
Bus & MotorWESTFORD DRAG, Unknown motor
Mass~1 kg wet, ~1 kg dry
Launch date (UTC)
1962-10-26 (62 years ago)
Launch vehicleUnknown
Launch site
Air Force Western Test Range (AFWTR)
Object type
Payload
Rocket body
Debris
Shape & HBRUnknown
Radar Cross SectionMedium (>0.1 m² and <1 m²)

Expand to show TLE details & history

TLE from 2 days ago
0 MIDAS 5 DEB
1 19981U 62010H   24355.04268362  .00000035  00000-0  63688-2 0  9998
2 19981  86.6794  34.0362 0323333 242.5060 114.2631  9.42947938254222
Epoch: 2024-12-20T01:01Z
Definitive object data (Epoch: 2024-12-20T01:01:27.864Z)
Latitude-0.00011°
Longitude-70.44378°
Altitude3,222.034 km
Speed6.399 km/s
True Right ascension02h 16m 08s
True Declination0° 00' 00"
Sunlit
Object was in daylight at TLE epoch
Visualization TLE readout
Latitude6.64813°
Longitude108.94704°
Altitude2,961.329 km
Speed6.578 km/s
Apparent Right ascension15h 28m 47s
Apparent Declination-31° 25' 57"
Sunlit
Object is in daylight
Visualization observer readout
Local Sidereal Time12:58:36
Azimuth148.059° SSE
Elevation10.617°
Doppler factor1
Orbital elements
Apogee altitude3,389.534 km
Perigee altitude2,777.676 km
Semi-major axis9,461.742 km
Eccentricity0.0323333
Inclination86.6794°
RAAN34.0362°
Arg. of periapsis242.506°
True anomaly117.58387°
Mean anomaly114.2631°
Eccentric anomaly115.92917°
Mean motion2.35823 °/min
BSTAR0.0063688
Orbital period152.66 mins
Loading maneuver chart data...
Loading historical data...
Loading historical data...
Loading historical data...
Loading historical data...
Loading historical data...
Loading historical data...
Loading historical data...

MIDAS 5 DEB Visibility forecast

Observer location: undefined°, undefined

Span
Click to sort rows by Start time (UTC) header in descending order
Start Az.
Max El. time (UTC)
Max El. Az.
Max El.
End time (UTC)
End Az.
28 mins2024-12-21 16:00:33.489Z348.842° N2024-12-21 16:14:33.489Z283.214° WNW37.892°2024-12-21 16:28:33.489Z214.219° SW
29 mins2024-12-22 01:29:33.489Z132.737° SE2024-12-22 01:43:33.489Z70.33° E33.761°2024-12-22 01:58:33.489Z11.285° NNE
33 mins2024-12-22 03:59:33.489Z200.737° SSW2024-12-22 04:14:33.489Z273.444° WNW41.408°2024-12-22 04:32:33.489Z359.144° N
14 mins2024-12-22 06:47:33.489Z287.772° WNW2024-12-22 06:54:33.489Z312.843° NW13.449°2024-12-22 07:01:33.489Z337.575° N
24 mins2024-12-22 12:22:33.489Z13.451° NNE2024-12-22 12:34:33.489Z63.402° ENE24.731°2024-12-22 12:46:33.489Z115.718° SE
|